TSO034 UUDD-ULLI

Flight info

Callsign TSO034
Flight time N/A
Altitude 34000
Route N0470F340 SUNUN M869 RAVKA N50 NUDKO T561 ODATI T875 GENPA
Aircraft B763/H-Q/L

Departure

Time 2026-05-06 18:01
Airport Domodedovo International Airport (UUDD)

Arrival

Time N/A
Airport Pulkovo Airport (ULLI)
Time Latitude Longitude Altitude Speed Heading
2026-05-06 17:47 55.41202 37.90157 593 ft 0 kts 282°
2026-05-06 17:53 55.41201 37.90159 593 ft 1 kts 282°
2026-05-06 17:53 55.41199 37.90184 593 ft 2 kts 281°
2026-05-06 17:53 55.41196 37.90209 593 ft 2 kts 282°
2026-05-06 17:53 55.41192 37.90236 593 ft 2 kts 282°
2026-05-06 17:54 55.41189 37.90261 593 ft 2 kts 282°
2026-05-06 17:54 55.41186 37.90288 593 ft 2 kts 282°
2026-05-06 17:54 55.41183 37.90314 593 ft 2 kts 270°
2026-05-06 17:54 55.41185 37.90339 593 ft 2 kts 250°
2026-05-06 17:55 55.41192 37.90361 593 ft 2 kts 234°
2026-05-06 17:55 55.41200 37.90382 593 ft 2 kts 237°
2026-05-06 17:55 55.41208 37.90405 593 ft 2 kts 237°
2026-05-06 17:55 55.41216 37.90425 593 ft 0 kts 237°
2026-05-06 17:56 55.41216 37.90426 593 ft 0 kts 237°
2026-05-06 17:56 55.41216 37.90425 593 ft 0 kts 237°
2026-05-06 17:57 55.41210 37.90409 593 ft 4 kts 237°
2026-05-06 17:57 55.41174 37.90319 593 ft 14 kts 235°
2026-05-06 17:57 55.41093 37.90117 593 ft 25 kts 234°
2026-05-06 17:57 55.40989 37.89856 593 ft 25 kts 235°
2026-05-06 17:58 55.40892 37.89608 593 ft 24 kts 236°
2026-05-06 17:58 55.40789 37.89398 593 ft 17 kts 207°
2026-05-06 17:58 55.40669 37.89379 593 ft 17 kts 195°
2026-05-06 17:58 55.40560 37.89426 593 ft 17 kts 147°
2026-05-06 17:59 55.40451 37.89555 593 ft 21 kts 146°
2026-05-06 17:59 55.40312 37.89721 593 ft 26 kts 146°
2026-05-06 17:59 55.40159 37.89905 593 ft 26 kts 145°
2026-05-06 17:59 55.40048 37.89949 593 ft 13 kts 250°
2026-05-06 18:00 55.40075 37.89793 593 ft 13 kts 295°
2026-05-06 18:00 55.40123 37.89628 593 ft 18 kts 305°
2026-05-06 18:00 55.40251 37.89446 593 ft 32 kts 325°
2026-05-06 18:00 55.40600 37.89026 593 ft 91 kts 326°
2026-05-06 18:01 55.41271 37.88211 593 ft 138 kts 326°
2026-05-06 18:01 55.42169 37.87188 811 ft 163 kts 325°
2026-05-06 18:01 55.42947 37.85806 1440 ft 164 kts 313°
2026-05-06 18:01 55.43695 37.84253 2015 ft 172 kts 314°
2026-05-06 18:02 55.44429 37.82692 2800 ft 168 kts 313°
2026-05-06 18:02 55.45168 37.81171 3443 ft 171 kts 313°
2026-05-06 18:02 55.45932 37.79592 3936 ft 185 kts 306°
2026-05-06 18:02 55.46354 37.77238 4162 ft 223 kts 269°
2026-05-06 18:03 55.45834 37.74546 4751 ft 248 kts 235°
2026-05-06 18:03 55.44743 37.72274 5847 ft 247 kts 234°
2026-05-06 18:03 55.43594 37.69870 6477 ft 269 kts 223°
2026-05-06 18:03 55.41936 37.68411 7516 ft 279 kts 194°
2026-05-06 18:04 55.39965 37.68489 8503 ft 293 kts 167°
2026-05-06 18:04 55.38157 37.70142 9505 ft 303 kts 146°
2026-05-06 18:04 55.36474 37.72378 10417 ft 310 kts 147°
2026-05-06 18:04 55.34648 37.74644 10812 ft 338 kts 148°
2026-05-06 18:05 55.32637 37.77107 11136 ft 369 kts 147°
2026-05-06 18:05 55.30480 37.79750 11949 ft 384 kts 147°
2026-05-06 18:05 55.28274 37.82373 13067 ft 389 kts 152°
2026-05-06 18:05 55.25820 37.84241 14105 ft 390 kts 168°
2026-05-06 18:06 55.23184 37.85381 15177 ft 393 kts 168°
2026-05-06 18:06 55.20579 37.86585 16069 ft 398 kts 168°
2026-05-06 18:06 55.17865 37.87797 17100 ft 403 kts 168°
2026-05-06 18:06 55.15162 37.88875 17992 ft 406 kts 174°
2026-05-06 18:07 55.12348 37.89137 18918 ft 406 kts 186°
2026-05-06 18:07 55.09592 37.88486 19721 ft 408 kts 195°
2026-05-06 18:07 55.06907 37.86916 20594 ft 409 kts 206°
2026-05-06 18:07 55.04406 37.84485 21334 ft 413 kts 216°
2026-05-06 18:08 55.02226 37.81319 22116 ft 416 kts 226°
2026-05-06 18:08 55.00377 37.77443 22877 ft 420 kts 236°
2026-05-06 18:08 54.98814 37.73149 23530 ft 426 kts 236°
2026-05-06 18:08 54.97008 37.69046 24284 ft 429 kts 233°
2026-05-06 18:09 54.95369 37.64658 24954 ft 434 kts 243°
2026-05-06 18:09 54.94211 37.59853 25696 ft 438 kts 252°
2026-05-06 18:09 54.93519 37.54668 26368 ft 443 kts 261°
2026-05-06 18:09 54.93116 37.49401 26980 ft 449 kts 265°
2026-05-06 18:10 54.93124 37.43977 27644 ft 454 kts 275°
2026-05-06 18:10 54.93663 37.38505 28205 ft 461 kts 284°
2026-05-06 18:10 54.94730 37.33215 28823 ft 467 kts 292°
2026-05-06 18:10 54.96286 37.28243 29364 ft 474 kts 302°
2026-05-06 18:11 54.98291 37.23735 29930 ft 480 kts 311°
2026-05-06 18:11 55.00737 37.19754 30611 ft 483 kts 320°
2026-05-06 18:11 55.03437 37.16367 31362 ft 481 kts 322°
2026-05-06 18:11 55.06068 37.12827 32070 ft 480 kts 319°
2026-05-06 18:12 55.08634 37.09160 32834 ft 477 kts 318°
2026-05-06 18:12 55.11140 37.05460 33626 ft 473 kts 317°
2026-05-06 18:12 55.13585 37.01527 33921 ft 471 kts 314°
2026-05-06 18:12 55.15919 36.97602 33901 ft 468 kts 314°
2026-05-06 18:13 55.20705 36.89890 33908 ft 468 kts 321°
2026-05-06 18:13 55.26494 36.84541 33920 ft 473 kts 340°
2026-05-06 18:14 55.32963 36.82283 33913 ft 475 kts 350°
2026-05-06 18:14 55.39499 36.80731 33910 ft 476 kts 355°
2026-05-06 18:15 55.46080 36.80077 33912 ft 476 kts 355°
2026-05-06 18:15 55.52681 36.79399 33916 ft 475 kts 354°
2026-05-06 18:16 55.59172 36.77678 33930 ft 470 kts 340°
2026-05-06 18:16 55.64957 36.72642 33932 ft 464 kts 324°
2026-05-06 18:17 55.70300 36.66238 33923 ft 463 kts 323°
2026-05-06 18:17 55.75546 36.59745 33923 ft 462 kts 322°
2026-05-06 18:18 55.80766 36.53201 33923 ft 461 kts 322°
2026-05-06 18:18 55.85967 36.46640 33922 ft 459 kts 322°
2026-05-06 18:19 55.91294 36.40313 33923 ft 460 kts 324°
2026-05-06 18:19 55.96619 36.34074 33924 ft 459 kts 323°
2026-05-06 18:20 56.01934 36.27821 33925 ft 458 kts 323°
2026-05-06 18:20 56.07229 36.21571 33929 ft 458 kts 323°
2026-05-06 18:21 56.12386 36.15048 33925 ft 453 kts 314°
2026-05-06 18:21 56.16246 36.06411 33920 ft 446 kts 296°
2026-05-06 18:22 56.19133 35.96556 33913 ft 445 kts 298°